CZ-6A DEB, 60961

Orbit data source: Space-Track

CZ-6A DEB, 60961 is space debris in LEO originally from a launch on Tue, 06 Aug 2024 UTC launched from the Taiyaun Space Center, China (TSC). Debris objects in space refer to the collection of defunct objects orbiting the Earth. Examples of debris include non-operational satellites, rocket bodies, and fragments generated from explosions, collisions, or faulty payload assembly.

Loading next visibility...
Identifier
60961, 2024-140LL
Orbit
LEO
Country
Flag of CNCN / PRC
Related business
Manufacturer
SAST
Mission
Spacecraft
Bus & Motor
Unknown
Mass
Unknown
Launch date (UTC)
2024-08-06 (2 years ago)
Launch vehicle
Unknown
Launch site
Taiyaun Space Center, China (TSC)
Object type
Payload
Rocket body
Debris
Shape & HBR
Unknown shape, 0.1 m
Radar Cross Section
Medium (>0.1 m² and <1 m²)

Expand to show TLE details & history
Last TLE update: 16 hours ago

TLE from 16 hours ago
0 CZ-6A DEB
1 60961U 24140LL  26171.29206125  .00002010  00000-0  80118-3 0  9991
2 60961  89.0055 274.0452 0032244 174.9963 185.1560 14.27965100 96320
Epoch: 2026-06-20T07:00Z
TLE epoch observation values (Epoch: 2026-06-20T07:00:34.091Z)
Latitude
-0.00003°
Longitude
-99.60563°
Altitude
824.658 km
Speed
7.429 km/s
True Right ascension
18h 16m 10s
True Declination
0° 00' 00"
Sunlit
Object was in full shadow at epoch
Visualization orbit readout
Latitude
Unknown
Longitude
Unknown
Altitude
Unknown
Speed
Unknown
Apparent Right ascension
Unknown
Apparent Declination
Unknown
Sunlit
N/A
Visualization observer readout
Local Sidereal Time
10:20:24
Azimuth
Unknown
Elevation
Unknown
Doppler factor
Unknown
Orbital elements
Apogee altitude
818.611 km
Perigee altitude
772.35 km
Semi-major axis
7,173.617 km
Eccentricity
0.00322
Inclination
89.0055°
RAAN
274.0452°
Arg. of periapsis
174.9963°
True anomaly
185.12293°
Mean anomaly
185.156°
Eccentric anomaly
185.13945°
Mean motion
3.5722 °/min
Orbital period
100.78 mins
BSTAR
0.00080118
Loading maneuver chart data...
Computing Atmospheric mass density...
Loading historical data...
Loading historical data...
Loading historical data...
Loading historical data...
Loading historical data...
Loading historical data...
Loading historical data...

Documentation

Showing up to 5 results
|